This is the latest recevied weather packets stored in our database for station/object SR2GKG-13. If no packets are shown the sender has not sent any weather packets the latest 10 day(s).
| Time | Temp. | Humidity | Pressure | Rain* | Wind** | Luminosity | Snow |
|---|---|---|---|---|---|---|---|
| 1778076580 | 18.89° C | 59% | 993.8 hPa | - | - | - | - |
| 1778075680 | 18.89° C | 59% | 993.8 hPa | - | - | - | - |
| 1778074780 | 19.44° C | 57% | 993.8 hPa | - | - | - | - |
| 1778073880 | 19.44° C | 58% | 993.8 hPa | - | - | - | - |
| 1778072979 | 18.33° C | 60% | 993.9 hPa | - | - | - | - |
| 1778072079 | 18.33° C | 58% | 993.8 hPa | - | - | - | - |
| 1778071179 | 19.44° C | 55% | 993.8 hPa | - | - | - | - |
| 1778070279 | 20.56° C | 52% | 993.7 hPa | - | - | - | - |
| 1778069379 | 19.44° C | 55% | 993.8 hPa | - | - | - | - |
| 1778068479 | 20° C | 53% | 993.7 hPa | - | - | - | - |
| 1778067579 | 19.44° C | 55% | 993.7 hPa | - | - | - | - |
| 1778066679 | 19.44° C | 56% | 993.8 hPa | - | - | - | - |
| 1778065779 | 18.33° C | 58% | 993.7 hPa | - | - | - | - |
| 1778064879 | 19.44° C | 56% | 993.8 hPa | - | - | - | - |
| 1778063978 | 20.56° C | 54% | 993.4 hPa | - | - | - | - |
| 1778063078 | 19.44° C | 56% | 993.4 hPa | - | - | - | - |
| 1778062178 | 18.89° C | 56% | 993.2 hPa | - | - | - | - |
| 1778061278 | 19.44° C | 57% | 993.4 hPa | - | - | - | - |
| 1778060378 | 18.89° C | 58% | 993.3 hPa | - | - | - | - |
| 1778059478 | 18.33° C | 60% | 993.2 hPa | - | - | - | - |
| 1778058578 | 17.78° C | 61% | 993.1 hPa | - | - | - | - |
| 1778057678 | 16.11° C | 73% | 993.4 hPa | - | - | - | - |
| 1778056778 | 15° C | 72% | 993.3 hPa | - | - | - | - |
| 1778055877 | 15.56° C | 66% | 992.6 hPa | - | - | - | - |
| 1778054977 | 16.11° C | 65% | 993.2 hPa | - | - | - | - |
* Rain since midnight (hover to see other rain measurements)
** Current wind speed in m/s (hover to see current wind gust speed)